Weather History for Rickenbacker, OH

Change the Weather History Date:

Tuesday, January 22, 2013

  Actual Average Record
Temperature  
Mean Temperature 13 °F -  
Max Temperature 18 °F 34 °F 69 °F (1999)
Min Temperature 8 °F 19 °F -8 °F (2011)
Degree Days  
Heating Degree Days 52    
Moisture  
Dew Point -4 °F    
Average Humidity 48    
Maximum Humidity 62    
Minimum Humidity 33    
Precipitation  
Precipitation 0.00 in - - ()
Sea Level Pressure  
Sea Level Pressure 30.28 in    
Wind  
Wind Speed 11 mph (West)    
Max Wind Speed 18 mph    
Max Gust Speed 23 mph    
Visibility 10 miles    
Events      
Averages and records for this station are not official NWS values.
T = Trace of Precipitation, MM = Missing Value Source: NWS Daily Summary

Daily Weather History Graph

Daily Weather History Graph

Search for Another Location

Airport:

Trip Planner

Search our weather history database for the weather conditions in past years. The results will help you decide how hot, cold, wet, or windy it might be!

Date:

Astronomy

Jan. 22, 2013 Rise Set
Actual Time 7:47 AM EST 5:39 PM EST
Civil Twilight 7:18 AM EST 6:08 PM EST
Nautical Twilight 6:45 AM EST 6:41 PM EST
Astronomical Twilight 6:13 AM EST 7:13 PM EST
Moon 2:01 PM EST 4:07 AM EST
Length of Visible Light 10h 50m
Length of Day
9h 52m
Waxing Gibbous, 82% of the Moon is Illuminated
Jan 22
Waxing Gibbous
Jan 26
Full
Feb 3
Last Quarter
Feb 10
New
Feb 17
First Quarter

Hourly Weather History & Observations

Time (EST) Temp. Windchill Dew Point Humidity Pressure Visibility Wind Dir Wind Speed Gust Speed Precip Events Conditions
12:15 AM 12.4 °F -2.3 °F -4.5 °F 47% 30.19 in 10.0 mi WNW 12.7 mph 20.7 mph N/A   Scattered Clouds
12:35 AM 12.0 °F -2.7 °F -4.2 °F 48% 30.20 in 10.0 mi West 12.7 mph 18.4 mph N/A   Mostly Cloudy
12:55 AM 11.8 °F -3.0 °F -5.1 °F 47% 30.20 in 10.0 mi WNW 12.7 mph 23.0 mph N/A   Scattered Clouds
1:15 AM 11.5 °F -1.9 °F -4.9 °F 48% 30.20 in 10.0 mi West 10.4 mph - N/A   Scattered Clouds
1:35 AM 11.3 °F -4.3 °F -3.1 °F 52% 30.20 in 10.0 mi West 13.8 mph 18.4 mph N/A   Scattered Clouds
1:55 AM 11.3 °F -3.6 °F -3.3 °F 52% 30.21 in 10.0 mi West 12.7 mph - N/A   Scattered Clouds
2:15 AM 11.3 °F -3.6 °F -3.3 °F 52% 30.21 in 10.0 mi West 12.7 mph 18.4 mph N/A   Mostly Cloudy
2:55 AM 11.1 °F -3.2 °F -2.4 °F 55% 30.22 in 10.0 mi West 11.5 mph - N/A   Scattered Clouds
3:15 AM 10.9 °F -4.1 °F -2.0 °F 56% 30.22 in 10.0 mi West 12.7 mph - N/A   Scattered Clouds
3:35 AM 10.4 °F -2.4 °F -1.7 °F 58% 30.22 in 10.0 mi West 9.2 mph - N/A   Clear
3:55 AM 10.2 °F -2.7 °F -1.7 °F 59% 30.22 in 10.0 mi West 9.2 mph - N/A   Clear
4:15 AM 10.0 °F -5.2 °F -2.0 °F 58% 30.22 in 10.0 mi West 12.7 mph - N/A   Clear
4:35 AM 10.2 °F -5.0 °F -4.0 °F 53% 30.22 in 10.0 mi West 12.7 mph 16.1 mph N/A   Clear
4:55 AM 10.0 °F -1.9 °F -3.6 °F 54% 30.23 in 10.0 mi West 8.1 mph - N/A   Clear
5:15 AM 9.5 °F -3.5 °F -2.6 °F 58% 30.23 in 10.0 mi West 9.2 mph - N/A   Clear
5:35 AM 9.5 °F -5.2 °F -2.6 °F 58% 30.23 in 10.0 mi West 11.5 mph 16.1 mph N/A   Clear
5:55 AM 9.5 °F -5.9 °F -3.3 °F 56% 30.24 in 10.0 mi West 12.7 mph - N/A   Clear
6:15 AM 9.5 °F -4.4 °F -3.5 °F 56% 30.25 in 10.0 mi West 10.4 mph - N/A   Clear
6:35 AM 9.1 °F -4.0 °F -3.5 °F 57% 30.26 in 10.0 mi West 9.2 mph - N/A   Clear
6:55 AM 9.0 °F -5.1 °F -3.5 °F 57% 30.26 in 10.0 mi West 10.4 mph - N/A   Clear
7:15 AM 8.6 °F -3.7 °F -3.5 °F 58% 30.27 in 10.0 mi West 8.1 mph - N/A   Clear
7:35 AM 8.4 °F -4.9 °F -3.1 °F 60% 30.28 in 10.0 mi West 9.2 mph - N/A   Clear
7:55 AM 8.1 °F -5.3 °F -2.4 °F 62% 30.29 in 10.0 mi West 9.2 mph - N/A   Scattered Clouds
8:15 AM 8.6 °F -5.5 °F -2.4 °F 61% 30.29 in 10.0 mi West 10.4 mph - N/A   Mostly Cloudy
8:35 AM 9.3 °F -5.4 °F -2.2 °F 60% 30.30 in 10.0 mi West 11.5 mph - N/A   Mostly Cloudy
8:55 AM 9.9 °F -4.0 °F -2.0 °F 59% 30.31 in 10.0 mi West 10.4 mph - N/A   Mostly Cloudy
9:15 AM 10.2 °F -6.3 °F -2.0 °F 58% 30.31 in 10.0 mi WSW 15.0 mph 18.4 mph N/A   Overcast
9:35 AM 10.4 °F -4.8 °F -2.0 °F 57% 30.32 in 10.0 mi West 12.7 mph - N/A   Overcast
9:55 AM 11.1 °F -3.2 °F -2.0 °F 56% 30.33 in 10.0 mi West 11.5 mph - N/A   Overcast
10:15 AM 11.7 °F 0.0 °F -2.7 °F 53% 30.33 in 10.0 mi West 8.1 mph 17.3 mph N/A   Mostly Cloudy
10:35 AM 12.4 °F 2.0 °F -2.4 °F 52% 30.33 in 10.0 mi NW 6.9 mph - N/A   Mostly Cloudy
10:55 AM 12.2 °F -1.8 °F -3.3 °F 50% 30.34 in 10.0 mi West 11.5 mph - N/A   Mostly Cloudy
11:15 AM 13.3 °F 1.1 °F -3.6 °F 47% 30.34 in 10.0 mi West 9.2 mph 17.3 mph N/A   Scattered Clouds
11:35 AM 14.0 °F 0.5 °F -3.8 °F 45% 30.34 in 10.0 mi West 11.5 mph 16.1 mph N/A   Scattered Clouds
11:55 AM 13.8 °F 1.0 °F -4.5 °F 44% 30.33 in 10.0 mi WSW 10.4 mph - N/A   Scattered Clouds
12:15 PM 14.4 °F 0.9 °F -4.9 °F 42% 30.32 in 10.0 mi WNW 11.5 mph - N/A   Scattered Clouds
12:35 PM 14.5 °F 1.1 °F -5.3 °F 41% 30.31 in 10.0 mi WSW 11.5 mph - N/A   Scattered Clouds
12:55 PM 15.4 °F 3.0 °F -5.6 °F 39% 30.31 in 10.0 mi WSW 10.4 mph 18.4 mph N/A   Scattered Clouds
1:15 PM 15.4 °F 2.3 °F -5.3 °F 40% 30.29 in 10.0 mi WSW 11.5 mph 17.3 mph N/A   Mostly Cloudy
1:35 PM 16.2 °F 1.9 °F -4.9 °F 39% 30.29 in 10.0 mi West 13.8 mph - N/A   Mostly Cloudy
1:55 PM 16.9 °F 2.3 °F -4.4 °F 39% 30.28 in 10.0 mi WSW 15.0 mph 20.7 mph N/A   Mostly Cloudy
2:55 PM 17.8 °F 8.5 °F -4.9 °F 37% 30.27 in 10.0 mi West 6.9 mph - N/A   Mostly Cloudy
3:15 PM 18.5 °F 5.5 °F -5.1 °F 35% 30.28 in 10.0 mi West 12.7 mph 18.4 mph N/A   Mostly Cloudy
3:35 PM 18.3 °F 2.6 °F -5.4 °F 35% 30.28 in 10.0 mi West 18.4 mph - N/A   Mostly Cloudy
3:55 PM 18.1 °F 5.0 °F -5.6 °F 35% 30.29 in 10.0 mi West 12.7 mph 18.4 mph N/A   Mostly Cloudy
4:15 PM 18.3 °F 8.2 °F -5.8 °F 34% 30.28 in 10.0 mi West 8.1 mph 19.6 mph N/A   Mostly Cloudy
4:35 PM 18.7 °F 4.0 °F -6.2 °F 33% 30.29 in 10.0 mi West 16.1 mph - N/A   Mostly Cloudy
4:55 PM 18.1 °F 3.9 °F -6.5 °F 33% 30.29 in 10.0 mi West 15.0 mph - N/A   Scattered Clouds
5:15 PM 17.2 °F 5.2 °F -6.0 °F 36% 30.29 in 10.0 mi West 10.4 mph - N/A   Clear
5:35 PM 16.7 °F 2.6 °F -5.6 °F 37% 30.29 in 10.0 mi West 13.8 mph 19.6 mph N/A   Clear
5:55 PM 16.2 °F 3.9 °F -5.4 °F 38% 30.30 in 10.0 mi West 10.4 mph - N/A   Clear
6:15 PM 15.8 °F 2.7 °F -5.6 °F 38% 30.29 in 10.0 mi West 11.5 mph 20.7 mph N/A   Clear
6:35 PM 15.8 °F 0.9 °F -6.3 °F 37% 30.30 in 10.0 mi West 15.0 mph 20.7 mph N/A   Clear
6:55 PM 15.6 °F 3.2 °F -5.4 °F 39% 30.30 in 10.0 mi West 10.4 mph - N/A   Clear
7:15 PM 15.3 °F 2.8 °F -4.7 °F 41% 30.29 in 10.0 mi West 10.4 mph - N/A   Clear
7:35 PM 15.3 °F 2.8 °F -4.4 °F 42% 30.30 in 10.0 mi WNW 10.4 mph - N/A   Clear
7:55 PM 15.4 °F 3.8 °F -3.8 °F 42% 30.30 in 10.0 mi West 9.2 mph - N/A   Clear
8:15 PM 15.3 °F 5.4 °F -3.1 °F 44% 30.30 in 10.0 mi WNW 6.9 mph - N/A   Clear
8:35 PM 15.3 °F 4.4 °F -2.6 °F 45% 30.30 in 10.0 mi WNW 8.1 mph - N/A   Clear
8:55 PM 15.1 °F 4.2 °F -2.4 °F 46% 30.29 in 10.0 mi WNW 8.1 mph - N/A   Clear
9:15 PM 14.9 °F 5.0 °F -2.2 °F 47% 30.29 in 10.0 mi WNW 6.9 mph - N/A   Clear
9:35 PM 14.9 °F 5.0 °F -2.2 °F 47% 30.29 in 10.0 mi WNW 6.9 mph - N/A   Clear
9:55 PM 14.9 °F 6.1 °F -1.7 °F 48% 30.30 in 10.0 mi WNW 5.8 mph - N/A   Clear
10:15 PM 14.9 °F 5.0 °F -1.7 °F 48% 30.30 in 10.0 mi West 6.9 mph - N/A   Scattered Clouds
10:35 PM 14.7 °F 5.9 °F -1.7 °F 48% 30.31 in 10.0 mi West 5.8 mph - N/A   Scattered Clouds
10:55 PM 14.9 °F 6.1 °F -1.7 °F 48% 30.31 in 10.0 mi West 5.8 mph - N/A   Scattered Clouds
11:15 PM 14.5 °F 4.6 °F -1.7 °F 49% 30.31 in 10.0 mi WNW 6.9 mph - N/A   Clear
11:35 PM 14.7 °F 5.9 °F -1.5 °F 49% 30.30 in 10.0 mi WNW 5.8 mph - N/A   Mostly Cloudy
11:55 PM 14.4 °F 5.5 °F -1.3 °F 50% 30.31 in 10.0 mi West 5.8 mph - N/A   Mostly Cloudy